Location: Columbia
(38.9520°N, 92.3340°W)
Time: 12:29:29
(UTC-05:00)

Cosmos 2219 Rocket - Visible Passes

Search period start: 16 August 2017 00:00
Search period end: 26 August 2017 00:00
Orbit: 828 x 847 km, 71.0° (Epoch: 15 August)

Date Brightness Start Highest point End Pass type
(mag) Time Alt. Az. Time Alt. Az. Time Alt. Az.
16 Aug 4.5 01:45:15 15° NW 01:45:18 16° NW 01:48:35 10° NNW visible
16 Aug 3.7 23:47:13 30° NNE 23:47:13 30° NNE 23:49:58 10° NNE visible
17 Aug 4.4 01:28:55 17° NW 01:28:55 17° NW 01:32:26 10° NNW visible
17 Aug 3.6 23:30:51 30° NNE 23:30:51 30° NNE 23:33:36 10° NNE visible
18 Aug 4.4 01:12:32 18° NW 01:12:32 18° NW 01:16:14 10° N visible
18 Aug 3.5 23:14:23 30° NE 23:14:23 30° NE 23:17:13 10° NNE visible
19 Aug 4.3 00:56:04 19° NW 00:56:04 19° NW 01:00:01 10° N visible
19 Aug 3.4 22:57:52 31° NE 22:57:52 31° NE 23:00:50 10° NNE visible
20 Aug 4.3 00:39:32 20° NW 00:39:37 20° NW 00:43:47 10° N visible
20 Aug 3.2 22:41:13 33° NE 22:41:13 33° NE 22:44:26 10° NNE visible
21 Aug 4.2 00:22:53 22° WNW 00:23:13 22° NW 00:27:33 10° N visible
21 Aug 3.0 22:24:26 36° ENE 22:24:26 36° ENE 22:28:03 10° NNE visible
22 Aug 4.1 00:06:05 23° WNW 00:06:49 23° NW 00:11:18 10° N visible
22 Aug 2.7 22:07:25 40° ENE 22:07:25 40° ENE 22:11:39 10° NE visible
22 Aug 4.1 23:49:03 23° WNW 23:50:24 25° NW 23:55:02 10° N visible
23 Aug 2.5 21:50:02 42° ESE 21:50:02 42° ESE 21:55:14 10° NE visible
23 Aug 4.0 23:31:38 20° W 23:34:00 27° WNW 23:38:46 10° N visible
24 Aug 2.6 21:31:52 31° SE 21:33:36 39° ESE 21:38:49 10° NE visible
24 Aug 3.9 23:13:23 13° WSW 23:17:37 29° WNW 23:22:30 10° N visible
25 Aug 2.7 21:12:10 10° S 21:17:17 36° ESE 21:22:24 10° NE visible
25 Aug 3.8 22:56:15 10° WSW 23:01:13 31° WNW 23:06:12 10° N visible
